Date String (YYYY-MM-DD hh:mm:ss) UTC,Instrument flags,Ambient pressure (hPa),Sample flow (lpm),Bypass flow (lpm),Sample temperature (°C),Ambient temperature (°C),ASC tube jacket temperature (°C),LED temperature (°C),Box temperature (°C),Sample RH (%),Span deviation,Mass concentration (μg/m³),Mass concentration (μg/m³),Mass concentration (μg/m³)
DateTimeUTC,F1_M11,P_M11,Q1_M11,Q2_M11,T1_M11,T2_M11,T3_M11,T4_M11,T5_M11,U1_M11,ZSPAN_M11,X0_M11,X2_M11,X1_M11
2022-07-18 09:00:00,,0827.7,4.99,0.00,29.7,28.5,00.0,38.4,31.7,24.5,0000.0,0010.27,0006.40,0005.72
2022-07-18 09:01:00,,0827.6,5.00,0.00,29.7,27.8,00.0,38.3,31.6,24.5,0000.0,0010.47,0006.43,0005.71
2022-07-18 09:02:00,,0827.6,5.02,0.00,29.7,27.5,00.0,38.3,31.5,24.4,0000.0,0010.61,0006.47,0005.71
2022-07-18 09:03:00,,0827.5,4.99,0.00,29.6,27.5,00.0,38.3,31.4,24.5,0000.0,0010.49,0006.45,0005.71
2022-07-18 09:04:00,,0827.5,4.99,0.00,29.6,27.6,00.0,38.3,31.3,24.6,0000.0,0010.54,0006.47,0005.70
2022-07-18 09:05:00,,0827.5,5.00,0.00,29.6,27.7,00.0,38.3,31.4,24.6,0000.0,0010.40,0006.42,0005.70
2022-07-18 09:06:00,,0827.5,5.00,0.00,29.6,27.8,00.0,38.3,31.4,24.6,0000.0,0010.37,0006.39,0005.69
2022-07-18 09:07:00,,0827.6,4.99,0.00,29.6,28.0,00.0,38.3,31.4,24.6,0000.0,0010.46,0006.38,0005.69
2022-07-18 09:08:00,,0827.5,5.00,0.00,29.6,28.1,00.0,38.3,31.4,24.6,0000.0,0010.62,0006.40,0005.70
2022-07-18 09:09:00,,0827.6,5.01,0.00,29.6,28.2,00.0,38.3,31.5,24.7,0000.0,0010.69,0006.45,0005.70
2022-07-18 09:10:00,,0827.6,4.99,0.00,29.6,28.3,00.0,38.4,31.5,24.7,0000.0,0010.45,0006.42,0005.69
2022-07-18 09:11:00,,0827.6,5.00,0.00,29.6,28.4,00.0,38.4,31.5,24.7,0000.0,0010.37,0006.41,0005.68
2022-07-18 09:12:00,,0827.7,5.01,0.00,29.7,28.5,00.0,38.4,31.6,24.7,0000.0,0010.41,0006.41,0005.69
2022-07-18 09:13:00,,0827.7,4.99,0.00,29.7,28.6,00.0,38.4,31.6,24.7,0000.0,0010.35,0006.40,0005.70
2022-07-18 09:14:00,,0827.7,5.01,0.00,29.7,28.6,00.0,38.4,31.7,24.8,0000.0,0010.47,0006.42,0005.72
2022-07-18 09:15:00,,0827.7,5.00,0.00,29.7,28.7,00.0,38.4,31.7,25.0,0000.0,0010.45,0006.41,0005.73
2022-07-18 09:16:00,,0827.7,5.01,0.00,29.8,28.5,00.0,38.4,31.7,25.0,0000.0,0010.37,0006.39,0005.74
2022-07-18 09:17:00,,0827.7,5.00,0.00,29.8,27.8,00.0,38.4,31.6,25.0,0000.0,0010.42,0006.42,0005.76
2022-07-18 09:18:00,,0827.7,4.99,0.00,29.7,27.5,00.0,38.3,31.5,25.0,0000.0,0010.39,0006.43,0005.78
2022-07-18 09:19:00,,0827.7,5.00,0.00,29.7,27.5,00.0,38.4,31.4,25.0,0000.0,0010.02,0006.43,0005.79
2022-07-18 09:20:00,,0827.7,5.00,0.00,29.6,27.6,00.0,38.3,31.4,25.0,0000.0,0009.93,0006.42,0005.80
2022-07-18 09:21:00,,0827.7,5.00,0.00,29.6,27.7,00.0,38.3,31.4,25.1,0000.0,0010.08,0006.41,0005.80
2022-07-18 09:22:00,,0827.7,5.00,0.00,29.6,27.8,00.0,38.3,31.4,25.2,0000.0,0010.75,0006.45,0005.80
2022-07-18 09:23:00,,0827.7,5.00,0.00,29.6,27.9,00.0,38.3,31.4,25.2,0000.0,0010.75,0006.43,0005.80
2022-07-18 09:24:00,,0827.7,5.00,0.00,29.6,28.1,00.0,38.4,31.4,25.1,0000.0,0011.65,0006.43,0005.80
2022-07-18 09:25:00,,0827.7,4.99,0.00,29.6,28.2,00.0,38.4,31.5,25.0,0000.0,0011.98,0006.42,0005.79
2022-07-18 09:26:00,,0827.7,5.01,0.00,29.6,28.3,00.0,38.4,31.5,25.0,0000.0,0011.96,0006.41,0005.79
2022-07-18 09:27:00,,0827.7,4.99,0.00,29.6,28.4,00.0,38.4,31.5,24.9,0000.0,0012.01,0006.41,0005.79
2022-07-18 09:28:00,,0827.6,5.00,0.00,29.7,28.5,00.0,38.4,31.6,24.8,0000.0,0012.31,0006.43,0005.78
2022-07-18 09:29:00,,0827.6,5.00,0.00,29.7,28.6,00.0,38.4,31.6,24.7,0000.0,0012.90,0006.43,0005.76
2022-07-18 09:30:00,,0827.6,5.01,0.00,29.7,28.6,00.0,38.4,31.7,24.7,0000.0,0013.37,0006.41,0005.75
2022-07-18 09:31:00,,0827.5,4.99,0.00,29.7,28.7,00.0,38.4,31.7,24.7,0000.0,0013.31,0006.38,0005.75
2022-07-18 09:32:00,,0827.5,4.99,0.00,29.8,28.4,00.0,38.4,31.7,24.7,0000.0,0013.45,0006.43,0005.76
2022-07-18 09:33:00,,0827.5,5.01,0.00,29.8,27.7,00.0,38.4,31.6,24.8,0000.0,0013.92,0006.45,0005.77
2022-07-18 09:34:00,,0827.5,4.99,0.00,29.7,27.4,00.0,38.3,31.5,25.0,0000.0,0014.30,0006.51,0005.80
2022-07-18 09:35:00,,0827.5,5.00,0.00,29.7,27.4,00.0,38.4,31.4,25.1,0000.0,0013.94,0006.54,0005.81
2022-07-18 09:36:00,,0827.5,5.01,0.00,29.6,27.5,00.0,38.3,31.3,25.2,0000.0,0013.32,0006.59,0005.83
2022-07-18 09:37:00,,0827.5,5.00,0.00,29.6,27.6,00.0,38.3,31.3,25.3,0000.0,0013.57,0006.62,0005.85
2022-07-18 09:38:00,,0827.5,5.00,0.00,29.6,27.8,00.0,38.3,31.4,25.5,0000.0,0014.18,0006.68,0005.87
2022-07-18 09:39:00,,0827.5,5.01,0.00,29.6,27.9,00.0,38.3,31.4,25.4,0000.0,0014.08,0006.69,0005.90
2022-07-18 09:40:00,,0827.5,4.99,0.00,29.6,28.0,00.0,38.3,31.4,25.2,0000.0,0013.27,0006.62,0005.92
2022-07-18 09:41:00,,0827.5,5.01,0.00,29.6,28.2,00.0,38.4,31.5,25.2,0000.0,0012.60,0006.63,0005.93
2022-07-18 09:42:00,,0827.5,5.00,0.00,29.6,28.3,00.0,38.4,31.5,25.3,0000.0,0012.76,0006.67,0005.93
2022-07-18 09:43:00,,0827.5,4.99,0.00,29.6,28.4,00.0,38.4,31.5,25.3,0000.0,0012.67,0006.66,0005.93
2022-07-18 09:44:00,,0827.6,5.01,0.00,29.6,28.4,00.0,38.4,31.6,25.3,0000.0,0011.94,0006.65,0005.94
2022-07-18 09:45:00,,0827.5,4.99,0.00,29.7,28.5,00.0,38.4,31.6,25.3,0000.0,0011.10,0006.60,0005.94
2022-07-18 09:46:00,,0827.6,5.01,0.00,29.7,28.6,00.0,38.4,31.7,25.3,0000.0,0011.07,0006.60,0005.95
2022-07-18 09:47:00,,0827.5,4.99,0.00,29.7,28.6,00.0,38.4,31.7,25.2,0000.0,0010.92,0006.61,0005.95
2022-07-18 09:48:00,,0827.5,5.01,0.00,29.8,28.7,00.0,38.5,31.7,25.2,0000.0,0011.14,0006.57,0005.96
2022-07-18 09:49:00,,0827.6,5.01,0.00,29.8,28.7,00.0,38.5,31.7,25.1,0000.0,0010.50,0006.52,0005.95
2022-07-18 09:50:00,,0827.5,4.99,0.00,29.8,28.1,00.0,38.4,31.7,25.1,0000.0,0010.71,0006.53,0005.95
2022-07-18 09:51:00,,0827.5,5.00,0.00,29.8,27.5,00.0,38.4,31.6,24.8,0000.0,0011.31,0006.59,0005.95
2022-07-18 09:52:00,,0827.5,4.99,0.00,29.7,27.4,00.0,38.4,31.5,24.7,0000.0,0011.44,0006.62,0005.94
2022-07-18 09:53:00,,0827.5,5.00,0.00,29.7,27.4,00.0,38.4,31.4,24.9,0000.0,0011.51,0006.67,0005.95
2022-07-18 09:54:00,,0827.6,5.00,0.00,29.6,27.5,00.0,38.4,31.4,25.2,0000.0,0011.65,0006.65,0005.94
2022-07-18 09:55:00,,0827.6,5.00,0.00,29.6,27.7,00.0,38.4,31.4,25.3,0000.0,0011.76,0006.65,0005.93
2022-07-18 09:56:00,,0827.6,5.00,0.00,29.6,27.8,00.0,38.4,31.4,25.3,0000.0,0011.98,0006.69,0005.93
2022-07-18 09:57:00,,0827.5,5.00,0.00,29.6,28.0,00.0,38.4,31.4,25.3,0000.0,0012.29,0006.71,0005.92
2022-07-18 09:58:00,,0827.6,5.00,0.00,29.6,28.1,00.0,38.4,31.5,25.3,0000.0,0013.32,0006.70,0005.91
2022-07-18 09:59:00,,0827.6,5.00,0.00,29.6,28.2,00.0,38.4,31.5,25.3,0000.0,0012.83,0006.71,0005.91
